| time (UTC) | temp F | wind direction | speed MPH | gust MPH | rain 1hr in | rain 24hr in | rain mn in | humidity % | barometer mb |
| 20260510044558 | 76 | 128 | 0.0 | 0.0 | 0.00 | 0.13 | 0.13 | 89 | 1008.9 |
| 20260510043107 | 77 | 128 | 0.0 | 0.0 | 0.00 | 0.13 | 0.13 | 89 | 1009.0 |
| 20260510041557 | 77 | 128 | 0.0 | 0.0 | 0.00 | 0.13 | 0.13 | 89 | 1009.1 |
| 20260510040106 | 77 | 104 | 0.0 | 0.0 | 0.00 | 0.13 | 0.13 | 88 | 1009.0 |
| 20260510034555 | 78 | 94 | 0.0 | 0.0 | 0.00 | 0.13 | 0.13 | 87 | 1009.0 |
| 20260510033055 | 78 | 97 | 0.0 | 0.0 | 0.00 | 0.13 | 0.13 | 87 | 1009.1 |
| 20260510031558 | 78 | 115 | 0.0 | 0.0 | 0.00 | 0.13 | 0.13 | 85 | 1009.2 |
| 20260510030051 | 77 | 118 | 0.0 | 0.0 | 0.00 | 0.13 | 0.13 | 79 | 1009.0 |
| 20260510024548 | 75 | 87 | 0.0 | 0.0 | 0.00 | 0.13 | 0.13 | 84 | 1008.6 |
| 20260510023047 | 75 | 174 | 0.0 | 0.0 | 0.00 | 0.13 | 0.13 | 84 | 1008.1 |
| 20260510021548 | 75 | 174 | 0.0 | 0.0 | 0.00 | 0.13 | 0.13 | 83 | 1007.5 |
| 20260510020046 | 75 | 174 | 0.0 | 0.0 | 0.00 | 0.13 | 0.13 | 82 | 1007.3 |
| 20260510014545 | 75 | 174 | 0.0 | 0.0 | 0.00 | 0.13 | 0.13 | 82 | 1006.8 |
| 20260510013044 | 76 | 198 | 0.0 | 0.0 | 0.00 | 0.13 | 0.13 | 82 | 1006.4 |
| 20260510011545 | 76 | 198 | 0.0 | 0.0 | 0.00 | 0.13 | 0.13 | 79 | 1006.3 |
| 20260510010043 | 76 | 198 | 0.0 | 0.0 | 0.00 | 0.13 | 0.13 | 77 | 1006.1 |
| 20260510004543 | 76 | 198 | 0.0 | 0.0 | 0.01 | 0.13 | 0.13 | 76 | 1006.2 |
| 20260510003047 | 76 | 197 | 0.0 | 0.0 | 0.07 | 0.13 | 0.13 | 76 | 1006.1 |
| 20260510001547 | 77 | 211 | 0.0 | 0.0 | 0.12 | 0.13 | 0.13 | 76 | 1005.9 |
| 20260510000041 | 79 | 209 | 0.0 | 0.0 | 0.13 | 0.13 | 0.13 | 88 | 1006.1 |
| 20260509234541 | 80 | 209 | 0.0 | 0.0 | 0.12 | 0.12 | 0.12 | 87 | 1005.5 |
| 20260509233040 | 81 | 204 | 0.0 | 0.0 | 0.06 | 0.06 | 0.06 | 81 | 1005.5 |
| 20260509231539 | 85 | 204 | 0.0 | 0.0 | 0.01 | 0.01 | 0.01 | 74 | 1005.5 |
| 20260509230038 | 88 | 89 | 0.0 | 0.0 | 0.00 | 0.00 | 0.00 | 66 | 1005.4 |
| 20260509224549 | 89 | 88 | 0.0 | 0.0 | 0.00 | 0.00 | 0.00 | 65 | 1005.1 |
| 20260509223038 | 89 | 87 | 0.0 | 0.0 | 0.00 | 0.00 | 0.00 | 64 | 1005.1 |
| 20260509221539 | 89 | 9 | 0.0 | 0.0 | 0.00 | 0.00 | 0.00 | 64 | 1005.0 |
| 20260509220035 | 89 | 9 | 0.0 | 0.0 | 0.00 | 0.00 | 0.00 | 63 | 1005.0 |
| 20260509214534 | 90 | 9 | 0.0 | 0.0 | 0.00 | 0.00 | 0.00 | 63 | 1005.0 |
| 20260509213033 | 90 | 9 | 0.0 | 0.0 | 0.00 | 0.00 | 0.00 | 63 | 1005.1 |
| 20260509211532 | 90 | 5 | 0.0 | 0.0 | 0.00 | 0.00 | 0.00 | 64 | 1005.2 |
| 20260509210032 | 90 | 15 | 0.0 | 0.0 | 0.00 | 0.00 | 0.00 | 63 | 1005.4 |
| 20260509204527 | 91 | 40 | 0.0 | 0.0 | 0.00 | 0.00 | 0.00 | 63 | 1005.6 |
| 20260509203025 | 91 | 47 | 0.0 | 0.0 | 0.00 | 0.00 | 0.00 | 65 | 1005.7 |
| 20260509201522 | 90 | 47 | 0.0 | 0.0 | 0.00 | 0.00 | 0.00 | 64 | 1006.0 |
| 20260509200020 | 89 | 46 | 0.0 | 0.0 | 0.00 | 0.00 | 0.00 | 65 | 1006.1 |
| 20260509194518 | 90 | 107 | 0.0 | 0.0 | 0.00 | 0.00 | 0.00 | 64 | 1006.3 |
| 20260509193016 | 90 | 227 | 0.0 | 0.0 | 0.00 | 0.00 | 0.00 | 62 | 1006.4 |
| 20260509191515 | 89 | 342 | 0.0 | 0.0 | 0.00 | 0.00 | 0.00 | 64 | 1006.4 |
| 20260509190013 | 88 | 232 | 0.0 | 0.0 | 0.00 | 0.00 | 0.00 | 68 | 1006.6 |
| 20260509184517 | 88 | 232 | 0.0 | 0.0 | 0.00 | 0.00 | 0.00 | 68 | 1006.7 |
| 20260509183006 | 86 | 279 | 0.0 | 0.0 | 0.00 | 0.00 | 0.00 | 71 | 1006.9 |
| 20260509181504 | 86 | 161 | 0.0 | 0.0 | 0.00 | 0.00 | 0.00 | 72 | 1007.2 |
| 20260509180003 | 85 | 147 | 0.0 | 0.0 | 0.00 | 0.00 | 0.00 | 72 | 1007.4 |
| 20260509174502 | 85 | 232 | 0.0 | 0.0 | 0.00 | 0.00 | 0.00 | 74 | 1007.7 |
| 20260509173059 | 85 | 141 | 0.0 | 0.0 | 0.00 | 0.00 | 0.00 | 78 | 1007.9 |
| 20260509171557 | 83 | 188 | 0.0 | 0.0 | 0.00 | 0.00 | 0.00 | 80 | 1007.9 |
| 20260509170100 | 82 | 185 | 0.0 | 0.0 | 0.00 | 0.00 | 0.00 | 83 | 1007.8 |
| 20260509164555 | 81 | 109 | 0.0 | 0.0 | 0.00 | 0.00 | 0.00 | 84 | 1008.1 |
| 20260509163051 | 80 | 109 | 0.0 | 0.0 | 0.00 | 0.00 | 0.00 | 85 | 1008.1 |
| 20260509161556 | 80 | 109 | 0.0 | 0.0 | 0.00 | 0.00 | 0.00 | 85 | 1008.3 |
| 20260509160045 | 80 | 109 | 0.0 | 0.0 | 0.00 | 0.00 | 0.00 | 86 | 1008.3 |
| 20260509154540 | 79 | 109 | 0.0 | 0.0 | 0.00 | 0.00 | 0.00 | 87 | 1008.1 |
| 20260509153039 | 78 | 109 | 0.0 | 0.0 | 0.00 | 0.00 | 0.00 | 89 | 1008.1 |
| 20260509151538 | 78 | 109 | 0.0 | 0.0 | 0.00 | 0.00 | 0.00 | 90 | 1008.2 |
| 20260509150037 | 78 | 109 | 0.0 | 0.0 | 0.00 | 0.00 | 0.00 | 92 | 1008.2 |
| 20260509144534 | 77 | 109 | 0.0 | 0.0 | 0.00 | 0.00 | 0.00 | 93 | 1007.7 |
| 20260509143031 | 76 | 109 | 0.0 | 0.0 | 0.00 | 0.00 | 0.00 | 94 | 1007.7 |
| 20260509141532 | 76 | 109 | 0.0 | 0.0 | 0.00 | 0.00 | 0.00 | 95 | 1007.6 |
| 20260509140027 | 76 | 109 | 0.0 | 0.0 | 0.00 | 0.00 | 0.00 | 95 | 1007.3 |
| 20260509134527 | 76 | 109 | 0.0 | 0.0 | 0.00 | 0.00 | 0.00 | 96 | 1007.5 |
| 20260509133026 | 76 | 109 | 0.0 | 0.0 | 0.00 | 0.00 | 0.00 | 96 | 1008.0 |
| 20260509131536 | 75 | 101 | 0.0 | 0.0 | 0.00 | 0.00 | 0.00 | 96 | 1008.2 |
| 20260509130021 | 75 | 95 | 0.0 | 0.0 | 0.00 | 0.00 | 0.00 | 96 | 1008.2 |
| 20260509124523 | 75 | 95 | 0.0 | 0.0 | 0.00 | 0.00 | 0.00 | 97 | 1008.2 |
| 20260509123019 | 74 | 95 | 0.0 | 0.0 | 0.00 | 0.00 | 0.00 | 96 | 1008.0 |
| 20260509121525 | 74 | 95 | 0.0 | 0.0 | 0.00 | 0.00 | 0.00 | 96 | 1007.9 |
| 20260509120018 | 74 | 95 | 0.0 | 0.0 | 0.00 | 0.00 | 0.00 | 96 | 1007.8 |
| 20260509114524 | 74 | 95 | 0.0 | 0.0 | 0.00 | 0.00 | 0.00 | 96 | 1007.6 |
| 20260509113018 | 74 | 95 | 0.0 | 0.0 | 0.00 | 0.00 | 0.00 | 96 | 1007.9 |
| 20260509111516 | 74 | 95 | 0.0 | 0.0 | 0.00 | 0.00 | 0.00 | 96 | 1007.8 |
| 20260509110017 | 74 | 95 | 0.0 | 0.0 | 0.00 | 0.00 | 0.00 | 96 | 1007.9 |
| 20260509104517 | 74 | 95 | 0.0 | 0.0 | 0.00 | 0.00 | 0.00 | 96 | 1007.3 |
| 20260509103014 | 74 | 95 | 0.0 | 0.0 | 0.00 | 0.00 | 0.00 | 96 | 1007.2 |
| 20260509101522 | 74 | 95 | 0.0 | 0.0 | 0.00 | 0.00 | 0.00 | 96 | 1007.1 |
| 20260509100020 | 74 | 95 | 0.0 | 0.0 | 0.00 | 0.00 | 0.00 | 95 | 1006.9 |
| 20260509094516 | 74 | 95 | 0.0 | 0.0 | 0.00 | 0.00 | 0.00 | 96 | 1006.9 |
| 20260509093011 | 75 | 95 | 0.0 | 0.0 | 0.00 | 0.00 | 0.00 | 96 | 1007.0 |
| 20260509091517 | 75 | 95 | 0.0 | 0.0 | 0.00 | 0.00 | 0.00 | 96 | 1007.3 |
| 20260509090008 | 75 | 95 | 0.0 | 0.0 | 0.00 | 0.00 | 0.00 | 96 | 1007.2 |
| 20260509084512 | 74 | 95 | 0.0 | 0.0 | 0.00 | 0.00 | 0.00 | 95 | 1007.4 |
| 20260509083006 | 75 | 95 | 0.0 | 0.0 | 0.00 | 0.00 | 0.00 | 95 | 1007.2 |
| 20260509081506 | 75 | 95 | 0.0 | 0.0 | 0.00 | 0.00 | 0.00 | 95 | 1007.1 |
| 20260509080005 | 75 | 95 | 0.0 | 0.0 | 0.00 | 0.00 | 0.00 | 95 | 1007.1 |
| 20260509074505 | 75 | 95 | 0.0 | 0.0 | 0.00 | 0.00 | 0.00 | 95 | 1007.1 |
| 20260509073004 | 75 | 95 | 0.0 | 0.0 | 0.00 | 0.00 | 0.00 | 95 | 1007.3 |
| 20260509071502 | 75 | 95 | 0.0 | 0.0 | 0.00 | 0.00 | 0.00 | 95 | 1007.1 |
| 20260509070101 | 75 | 95 | 0.0 | 0.0 | 0.00 | 0.00 | 0.00 | 95 | 1007.5 |
| 20260509064618 | 75 | 95 | 0.0 | 0.0 | 0.00 | 0.00 | 0.00 | 95 | 1007.4 |
| 20260509063054 | 75 | 95 | 0.0 | 0.0 | 0.00 | 0.00 | 0.00 | 95 | 1007.6 |
| 20260509061559 | 75 | 95 | 0.0 | 0.0 | 0.00 | 0.00 | 0.00 | 94 | 1007.8 |
| 20260509060047 | 75 | 95 | 0.0 | 0.0 | 0.00 | 0.00 | 0.00 | 94 | 1007.8 |
| 20260509054541 | 75 | 95 | 0.0 | 0.0 | 0.00 | 0.00 | 0.00 | 94 | 1007.8 |
| 20260509053038 | 75 | 95 | 0.0 | 0.0 | 0.00 | 0.00 | 0.00 | 94 | 1007.9 |
| 20260509051537 | 74 | 95 | 0.0 | 0.0 | 0.00 | 0.00 | 0.00 | 94 | 1008.0 |
| 20260509050034 | 74 | 94 | 0.0 | 0.0 | 0.00 | 0.00 | 0.00 | 94 | 1007.8 |